Location: Stoke Bliss
(52.2667°N, 2.5167°W)
Time: 14:24:58
(UTC+00:00)

SL-8 Rocket - Pass Details

Date: 03 March 2021
Orbit: 957 x 991 km, 82.9° (Epoch: 13 April)

Event Time Altitude Azimuth Distance (km) Brightness Sun altitude
Rises 19:52:04 0° 184° (S) 3,668 6.9 -18.8°
Reaches altitude 10° 19:54:34 10° 183° (S) 2,720 6.2 -19.2°
Maximum altitude 20:00:48 81° 97° (E) 989 3.9 -20.1°
Drops below altitude 10° 20:07:01 10° 12° (NNE) 2,715 6.4 -21.0°
Sets 20:09:31 0° 11° (NNE) 3,662 7.1 -21.4°
